Find Kosmos-800

NORAD ID: 8645 Int'l Des: 1976-011 Owner: VMF Country: SU operational
LEOCIRCULARPOLAR

現在のビュー

3D地球を読み込み中...

About Kosmos-800

Kosmos-800 (NORAD 8645) is a satellite by VMF of SU. It operates in LEO, CIRCULAR, POLAR orbit

次回通過

Passes for default location (London). Set your location on the main map for personalized predictions.

高度履歴

Loading altitude history...

軌道要素

1 8645U 76011A 26195.20270353 .00000046 00000-0 34058-4 0 9997
2 8645 82.9724 96.7989 0019928 265.7778 204.6132 13.72203372525095
Epoch: Jul 14, 2026 • Age: 12 hours

現在のステータス

高度 996.1 km
遠地点 / 近地点 N/A
速度 7.36 km/s
衛星直下点 -25.45°S, 86.26°W
タイプ other

Most Searched